Back to catalog

STARLINK-30052

AliveCommunicationsVLEO
NORAD 57611·PAYLOAD·🇺🇸 United States

Launched Aug 11, 2023 from Cape Canaveral Space Force Station

Loading…

Next Passes (next 24 hours)

TLE

FreshSource: CelesTrak SupGP

Epoch: Sep 14, 2026, 20:36 UTC

1 57611C 23119K   26257.85881944  .00012226  00000+0  44293-3 0  2579
2 57611  43.0013  93.0118 0001663 266.9252 327.8467 15.27565273    14

Track STARLINK-30052 in real time with AllMySat

Download on the App Store